Regional Weather Roundup
Issued by NWS Little Rock, AR

Home | Current Version | Previous Version | Graphics & Text | Print | Product List | Glossary On
Versions: 1 2 3 4 5 6 7 8 9 10 11 12 13 14 15 16 17 18 19 20 21 22 23 24 25 26 27 28 29 30 31 32 33 34 35 36 37 38 39 40 41 42 43 44 45 46 47
000
ASUS44 KLZK 280005
RWRLZK

WEATHER ROUNDUP FOR ARKANSAS
NATIONAL WEATHER SERVICE LITTLE ROCK AR
600 PM CST THU NOV 27 2014

NOTE: "FAIR" INDICATES FEW OR NO CLOUDS BELOW 12,000 FEET WITH NO
SIGNIFICANT WEATHER AND/OR OBSTRUCTIONS TO VISIBILITY.

ARZ001-003-010-029-280100-
NORTHWEST ARKANSAS

CITY           SKY/WX    TMP DP  RH WIND       PRES   REMARKS
FAYETTEVILLE   CLEAR     32  24  72 CALM      30.40S
6HR MIN TEMP:  32; 6HR MAX TEMP:  45;

FORT SMITH     PTCLDY    42  27  55 E5        30.42F
6HR MIN TEMP:  41; 6HR MAX TEMP:  50;

HARRISON       CLEAR     36  18  48 CALM      30.41S
6HR MIN TEMP:  36; 6HR MAX TEMP:  45;

BENTONVILLE    CLEAR     37  16  41 CALM      30.40S
6HR MIN TEMP:  34; 6HR MAX TEMP:  45;

ROGERS         CLEAR     38  19  46 E3        30.39F
6HR MIN TEMP:  35; 6HR MAX TEMP:  43;

SILOAM SPGS    CLEAR     39  18  41 E5        30.40S
6HR MIN TEMP:  36; 6HR MAX TEMP:  45;

HIGHFILL       CLEAR     39  20  46 E3        30.38F
6HR MIN TEMP:  34; 6HR MAX TEMP:  44;

SPRINGDALE     PTCLDY    37  19  48 CALM      30.41F
$$

ARZ004-005-016-280100-
NORTH CENTRAL ARKANSAS

CITY           SKY/WX    TMP DP  RH WIND       PRES   REMARKS
BATESVILLE     CLEAR     39  25  56 CALM      30.46R
6HR MIN TEMP:  39; 6HR MAX TEMP:  48;

FLIPPIN        CLEAR     37  19  48 E3        30.43F
6HR MIN TEMP:  37; 6HR MAX TEMP:  46;

MTN HOME       CLEAR     36  24  62 CALM      30.42F
6HR MIN TEMP:  35; 6HR MAX TEMP:  44;

$$

ARZ040-041-280100-
WEST CENTRAL ARKANSAS

CITY           SKY/WX    TMP DP  RH WIND       PRES   REMARKS
MENA           CLEAR     41  30  65 CALM      30.42R
MOUNT IDA      CLEAR     40  30  67 CALM      30.41S
6HR MIN TEMP:  40; 6HR MAX TEMP:  52;

$$

ARZ009-017-025-026-028-280100-
NORTHEAST ARKANSAS

CITY           SKY/WX    TMP DP  RH WIND       PRES   REMARKS
CORNING        FAIR      37  28  70 SE3       30.47R
JONESBORO      CLEAR     36  32  85 CALM      30.47S
6HR MIN TEMP:  36; 6HR MAX TEMP:  46;

NEWPORT        CLEAR     38  32  79 SE7       30.48S HAZE
6HR MIN TEMP:  38; 6HR MAX TEMP:  48; 6HR PCP: TRACE;

WALNUT RIDGE   CLEAR     37  27  65 CALM      30.46S
6HR MIN TEMP:  37; 6HR MAX TEMP:  46;

BLYTHEVILLE    CLEAR     39  29  67 E6        30.48S
6HR MIN TEMP:  39; 6HR MAX TEMP:  56;

$$

ARZ022-023-033-042-044-280100-
CENTRAL ARKANSAS

CITY           SKY/WX    TMP DP  RH WIND       PRES   REMARKS
LITTLE ROCK    PTCLDY    41  29  62 SE3       30.48R
6HR MIN TEMP:  41; 6HR MAX TEMP:  50;

N LITTLE ROCK  PTCLDY    40  30  68 CALM      30.48R
6HR MIN TEMP:  39; 6HR MAX TEMP:  47;

JACKSONVILLE   CLEAR     37  29  73 CALM      30.47R HAZE
6HR MIN TEMP:  37; 6HR MAX TEMP:  49;

SEARCY         CLEAR     40  29  64 S3        30.48S
6HR MIN TEMP:  40; 6HR MAX TEMP:  49;

HOT SPRINGS    CLEAR     40  28  62 CALM      30.45S
6HR MIN TEMP:  40; 6HR MAX TEMP:  50;

RUSSELLVILLE   CLEAR     37  30  75 CALM      30.44S
6HR MIN TEMP:  37; 6HR MAX TEMP:  50;

CLINTON        FAIR      37  30  75 CALM      30.46S
$$

ARZ036-280100-
EAST ARKANSAS

CITY           SKY/WX    TMP DP  RH WIND       PRES   REMARKS
WEST MEMPHIS   CLEAR     37  31  78 CALM      30.48S
6HR MIN TEMP:  36; 6HR MAX TEMP:  46;

$$

ARZ050-053-066-070-073-280100-
SOUTHWEST ARKANSAS

CITY           SKY/WX    TMP DP  RH WIND       PRES   REMARKS
ARKADELPHIA    FAIR      40  37  89 CALM      30.47S
6HR MIN TEMP:  40; 6HR MAX TEMP:  51;

CAMDEN         CLEAR     39  32  75 CALM      30.47R
TEXARKANA      CLEAR     42  32  67 CALM      30.45S
6HR MIN TEMP:  42; 6HR MAX TEMP:  53;

EL DORADO      CLEAR     40  34  79 CALM      30.47R
6HR MIN TEMP:  40; 6HR MAX TEMP:  53;

DE QUEEN       CLEAR     40  32  73 CALM      30.43S
6HR MIN TEMP:  40; 6HR MAX TEMP:  54;

$$

ARZ056-057-069-280100-
SOUTHEAST ARKANSAS

CITY           SKY/WX    TMP DP  RH WIND       PRES   REMARKS
PINE BLUFF     CLEAR     39  32  76 NE3       30.48S
6HR MIN TEMP:  39; 6HR MAX TEMP:  46; 6HR PCP: TRACE;

STUTTGART      CLEAR     41  30  65 SW6       30.49R
6HR MIN TEMP:  41; 6HR MAX TEMP:  48;

MONTICELLO     CLEAR     41  31  67 CALM      30.48R
6HR MIN TEMP:  41; 6HR MAX TEMP:  49;


$$




USA.gov is the U.S. government's official web portal to all federal, state and local government web resources and services.